Location: Fingrowa Huta
(54.1577°N, 17.9291°E)
Time: 02:03:49
(UTC+01:00)

ISS - Visible Passes

Search period start: 23 January 2019 00:00
Search period end: 02 February 2019 00:00
Orbit: 404 x 411 km, 51.6° (Epoch: 23 January)

Date Brightness Start Highest point End Pass type
(mag) Time Alt. Az. Time Alt. Az. Time Alt. Az.
23 Jan -1.0 18:40:52 10° S 18:41:04 11° S 18:41:04 11° S visible
24 Jan -1.3 17:51:03 10° SSE 17:51:52 11° SE 17:52:03 11° SE visible
24 Jan -0.6 19:24:40 10° SW 19:24:46 11° SW 19:24:46 11° SW visible
25 Jan -2.0 18:33:41 10° SSW 18:35:40 23° S 18:35:40 23° S visible
26 Jan -1.9 17:42:55 10° SSW 17:45:17 18° SSE 17:46:30 15° ESE visible
26 Jan -1.2 19:18:08 10° WSW 19:19:13 19° SW 19:19:13 19° SW visible
27 Jan -2.9 18:26:56 10° SW 18:30:00 37° SSE 18:30:00 37° SSE visible
28 Jan -2.5 17:35:50 10° SW 17:38:45 29° SSE 17:40:44 16° ESE visible
28 Jan -1.8 19:11:43 10° WSW 19:13:26 27° WSW 19:13:26 27° WSW visible
29 Jan -3.4 18:20:24 10° WSW 18:23:36 49° S 18:24:08 44° SE visible
29 Jan -0.3 19:56:42 10° W 19:56:51 11° W 19:56:51 11° W visible
30 Jan -3.0 17:29:08 10° SW 17:32:15 41° SSE 17:34:49 14° E visible
30 Jan -2.3 19:05:19 10° W 19:07:31 36° WSW 19:07:31 36° WSW visible
31 Jan -3.4 18:13:56 10° WSW 18:17:11 55° S 18:18:11 37° ESE visible
31 Jan -0.6 19:50:22 10° W 19:50:54 14° W 19:50:54 14° W visible
01 Feb -3.2 17:22:34 10° WSW 17:25:46 52° S 17:28:51 11° E visible
01 Feb -2.7 18:58:54 10° W 19:01:34 41° SW 19:01:34 41° SW visible
